Waarnemingen

Advertentie
Mijn weer
Drumalbin, Groot Brittannië (3155): temperatuur & dauwpunt: 15.02.2018 13:00:00 - 21.02.2018 13:00:00 (GMT)Drumalbin, Groot Brittannië (3155): temperatuur -20cm & temperatuur -100cm: 15.02.2018 13:00:00 - 21.02.2018 13:00:00 (GMT)Drumalbin, Groot Brittannië (3155): windsnelheid & windstoten: 15.02.2018 13:00:00 - 21.02.2018 13:00:00 (GMT)Drumalbin, Groot Brittannië (3155): windrichting: 15.02.2018 13:00:00 - 21.02.2018 13:00:00 (GMT)Drumalbin, Groot Brittannië (3155): luchtdruk: 15.02.2018 13:00:00 - 21.02.2018 13:00:00 (GMT)Drumalbin, Groot Brittannië (3155): zicht: 15.02.2018 13:00:00 - 21.02.2018 13:00:00 (GMT)Drumalbin, Groot Brittannië (3155): neerslag: 15.02.2018 13:00:00 - 21.02.2018 13:00:00 (GMT)
Datum & Tijd tt [°C] td [°C] tt -20cm [°C] tt -100cm [°C] ff [km/u] ff [kn] fx [km/u] fx [kn] dd ppp [hPa] vv [km] rr [mm]
21.02.2018 13:00:00 - - - - - - - - - - - -
21.02.2018 12:00:00 4,2 1,9 - - 2 1 - - NNW 1029,7 30 0,0
21.02.2018 11:00:00 3,1 1,6 - - 4 2 - - ZO 1030,1 30 0,0
21.02.2018 10:00:00 1,6 0,5 - - 8 4 - - OZO 1030,5 30 0,0
21.02.2018 09:00:00 0,4 -0,3 4,0 4,2 4 2 - - W 1030,6 29 0,0
21.02.2018 08:00:00 0,1 -0,4 - - 5 3 - - O 1030,4 29 0,0
21.02.2018 07:00:00 0,0 -0,6 - - 4 2 - - O 1030,3 30 0,0
21.02.2018 06:00:00 0,3 -0,5 - - 5 3 - - OZO 1030,2 30 0,0
21.02.2018 05:00:00 -0,1 -0,8 - - 4 2 - - O 1030,4 30 0,0
21.02.2018 04:00:00 0,3 -0,7 - - 8 4 - - ONO 1030,5 30 0,0
21.02.2018 03:00:00 0,4 -0,5 - - 2 1 - - NNW 1030,9 30 0,0
21.02.2018 02:00:00 0,0 -1,4 - - 0 0 - - N 1031,2 30 0,0
21.02.2018 01:00:00 1,7 0,4 - - 4 2 - - Z 1030,9 35 0,0
21.02.2018 00:00:00 2,0 0,2 - - 0 0 - - N 1030,8 35 0,0
20.02.2018 23:00:00 1,3 -0,2 - - 5 3 - - W 1030,5 35 0,0
20.02.2018 22:00:00 1,1 -1,0 - - 2 1 - - W 1030,1 35 0,0
20.02.2018 21:00:00 1,0 -0,6 - - 4 2 - - Z 1029,8 40 0,0
20.02.2018 20:00:00 2,8 -0,1 - - 13 7 - - NO 1029,2 45 0,0
20.02.2018 19:00:00 3,0 0,4 - - 11 6 - - NO 1028,8 35 0,0
20.02.2018 18:00:00 4,6 0,8 - - 5 3 - - NNO 1028,3 45 0,0
20.02.2018 17:00:00 6,4 1,2 - - 15 8 - - N 1027,5 45 0,0
20.02.2018 16:00:00 7,1 2,5 - - 13 7 - - N 1026,9 50 0,0
20.02.2018 15:00:00 7,4 1,9 - - 15 8 - - N 1026,6 50 0,0
20.02.2018 14:00:00 7,3 2,7 - - 16 9 - - N 1026,1 45 0,0
20.02.2018 13:00:00 6,9 2,8 - - 13 7 - - NW 1025,9 50 0,0
20.02.2018 12:00:00 6,7 2,7 - - 16 9 - - NW 1025,5 40 0,0
20.02.2018 11:00:00 6,0 3,0 - - 13 7 - - NNW 1025,1 30 0,0
20.02.2018 10:00:00 4,6 2,7 - - 21 11 - - WNW 1024,8 30 0,0
20.02.2018 09:00:00 3,3 2,0 4,0 4,0 11 6 - - WNW 1024,7 30 0,0
20.02.2018 08:00:00 2,0 1,0 - - 11 6 - - WNW 1024,0 28 0,0
20.02.2018 07:00:00 3,1 2,0 - - 8 4 - - W 1023,0 30 0,0
20.02.2018 06:00:00 2,8 1,7 - - 8 4 - - W 1022,1 29 0,0
20.02.2018 05:00:00 3,3 2,6 - - 21 11 - - W 1021,3 24 0,0
20.02.2018 04:00:00 3,6 2,9 - - 21 11 - - W 1020,8 22 0,0
20.02.2018 03:00:00 3,4 2,4 - - 11 6 - - W 1020,5 22 0,0
20.02.2018 02:00:00 4,4 3,1 - - 21 11 - - W 1020,0 27 0,0
20.02.2018 01:00:00 5,5 4,9 - - 22 12 - - W 1019,4 35 0,0
20.02.2018 00:00:00 5,8 5,0 - - 26 14 - - W 1019,5 10 0,0
19.02.2018 23:00:00 6,5 5,7 - - 28 15 - - WNW 1018,4 6 0,2
19.02.2018 22:00:00 7,5 7,3 - - 15 8 - - WZW 1017,9 9 0,0
19.02.2018 21:00:00 7,0 6,8 - - 8 4 - - ZW 1017,9 13 0,0
19.02.2018 20:00:00 7,2 6,4 - - 5 3 - - ZW 1018,2 50 0,0
19.02.2018 19:00:00 7,7 7,0 - - 9 5 - - W 1017,9 40 0,0
19.02.2018 18:00:00 7,8 7,1 - - 11 6 - - W 1017,6 45 0,0
19.02.2018 17:00:00 8,5 7,6 - - 13 7 - - W 1017,5 50 0,0
19.02.2018 16:00:00 9,1 8,2 - - 16 9 - - W 1017,0 50 0,0
19.02.2018 15:00:00 9,6 8,4 - - 18 10 - - W 1016,7 45 0,0
19.02.2018 14:00:00 9,9 8,8 - - 13 7 - - WNW 1016,6 30 0,0
19.02.2018 13:00:00 9,8 8,9 - - 16 9 - - W 1016,5 26 0,0
19.02.2018 12:00:00 9,5 8,8 - - 16 9 - - WNW 1016,4 20 0,0
19.02.2018 11:00:00 9,0 8,8 - - 11 6 - - W 1016,1 18 0,0
19.02.2018 10:00:00 8,2 8,2 - - 16 9 - - W 1016,0 11 0,0
19.02.2018 09:00:00 8,1 8,1 3,4 4,0 21 11 - - W 1015,4 13 0,0
19.02.2018 08:00:00 8,0 8,0 - - 15 8 - - W 1015,3 18 0,0
19.02.2018 07:00:00 7,8 7,8 - - 15 8 - - W 1014,9 4,2 0,0
19.02.2018 06:00:00 7,8 7,8 - - 18 10 - - W 1014,4 30 0,0
19.02.2018 05:00:00 7,8 7,8 - - 21 11 - - W 1014,1 35 0,4
19.02.2018 04:00:00 7,6 7,6 - - 16 9 - - W 1013,9 5 0,8
19.02.2018 03:00:00 7,6 7,6 - - 21 11 - - WZW 1013,8 8 0,8
19.02.2018 02:00:00 7,4 7,3 - - 22 12 - - WZW 1013,9 19 0,2
19.02.2018 01:00:00 6,2 6,0 - - 24 13 - - ZZW 1014,1 28 0,0
19.02.2018 00:00:00 5,7 5,3 - - 24 13 - - ZZW 1014,5 35 0,0
18.02.2018 23:00:00 5,5 5,1 - - 26 14 - - ZZW 1014,6 50 0,0
18.02.2018 22:00:00 5,5 5,0 - - 26 14 - - ZZW 1014,7 15 0,4
18.02.2018 21:00:00 5,3 4,7 - - 31 17 46 25 ZZW 1015,0 28 0,4
18.02.2018 20:00:00 5,3 4,6 - - 28 15 - - ZZW 1015,2 15 1,0
18.02.2018 19:00:00 5,1 4,5 - - 29 16 - - ZZW 1015,3 10 1,0
18.02.2018 18:00:00 5,0 4,4 - - 29 16 - - ZZW 1015,3 11 0,8
18.02.2018 17:00:00 5,1 4,3 - - 28 15 - - ZZW 1015,6 21 0,2
18.02.2018 16:00:00 5,3 4,7 - - 21 11 - - ZZW 1015,9 15 0,4
18.02.2018 15:00:00 5,7 4,6 - - 28 15 - - ZZW 1016,5 19 0,2
18.02.2018 14:00:00 5,7 4,2 - - 26 14 - - Z 1017,1 45 0,0
18.02.2018 13:00:00 5,8 4,6 - - 21 11 - - ZZW 1017,4 50 0,0
18.02.2018 12:00:00 4,7 4,0 - - 16 9 - - Z 1017,8 5 0,0
18.02.2018 11:00:00 4,7 3,7 - - 18 10 - - Z 1017,9 35 0,0
18.02.2018 10:00:00 3,7 3,2 - - 24 13 - - Z 1018,0 21 0,0
18.02.2018 09:00:00 3,1 2,8 3,0 3,9 26 14 - - Z 1018,1 13 0,0
18.02.2018 08:00:00 2,8 1,9 - - 13 7 - - ZZW 1018,6 29 0,0
18.02.2018 07:00:00 2,8 1,7 - - 15 8 - - ZZW 1019,0 35 0,0
18.02.2018 06:00:00 2,6 1,2 - - 13 7 - - ZW 1018,6 35 0,0
18.02.2018 05:00:00 1,9 0,8 - - 15 8 - - ZZW 1018,9 35 0,0
18.02.2018 04:00:00 1,9 1,1 - - 26 14 - - Z 1018,8 28 0,0
18.02.2018 03:00:00 1,4 0,7 - - 26 14 - - ZZW 1019,1 23 0,0
18.02.2018 02:00:00 1,0 0,6 - - 26 14 - - Z 1019,1 16 0,0
18.02.2018 01:00:00 1,2 0,4 - - 21 11 - - ZZW 1019,1 28 0,0
18.02.2018 00:00:00 1,6 0,3 - - 16 9 - - ZZW 1019,6 35 0,0
17.02.2018 23:00:00 2,4 0,8 - - 21 11 - - ZZW 1019,1 40 0,0
17.02.2018 22:00:00 1,7 0,7 - - 18 10 - - ZZW 1018,8 40 0,0
17.02.2018 21:00:00 1,4 0,5 - - 13 7 - - ZW 1018,8 45 0,0
17.02.2018 20:00:00 2,3 1,0 - - 15 8 - - ZZW 1018,6 50 0,0
17.02.2018 19:00:00 2,9 1,5 - - 16 9 - - ZZW 1018,6 50 0,0
17.02.2018 18:00:00 3,6 1,7 - - 13 7 - - ZW 1017,8 50 0,0
17.02.2018 17:00:00 3,9 1,6 - - 13 7 - - ZW 1017,2 50 0,0
17.02.2018 16:00:00 5,1 1,2 - - 16 9 - - ZW 1016,6 50 0,0
17.02.2018 15:00:00 6,1 2,4 - - 18 10 - - ZW 1016,2 50 0,0
17.02.2018 14:00:00 5,8 2,0 - - 22 12 - - ZW 1016,2 50 0,0
17.02.2018 13:00:00 5,5 2,3 - - 29 16 - - WZW 1016,3 50 0,0
17.02.2018 12:00:00 4,9 2,3 - - 28 15 - - ZW 1016,1 50 0,0
17.02.2018 11:00:00 3,6 2,5 - - 24 13 - - ZW 1016,1 40 0,0
17.02.2018 10:00:00 3,6 2,2 - - 24 13 - - ZW 1015,7 45 0,0
17.02.2018 09:00:00 2,8 1,8 2,9 4,0 21 11 - - ZZW 1015,3 40 0,0
17.02.2018 08:00:00 2,6 1,7 - - 21 11 - - ZW 1015,2 50 0,0
17.02.2018 07:00:00 2,6 2,1 - - 16 9 - - ZZW 1014,9 50 0,0
17.02.2018 06:00:00 2,7 2,1 - - 22 12 - - ZZW 1014,6 50 0,0
17.02.2018 05:00:00 2,2 1,6 - - 28 15 - - ZZW 1014,5 50 0,6
17.02.2018 04:00:00 2,0 1,4 - - 31 17 - - ZZW 1014,8 9 2,4
17.02.2018 03:00:00 2,5 2,0 - - 24 13 - - ZW 1014,9 8 2,6
17.02.2018 02:00:00 2,4 1,7 - - 34 18 52 28 Z 1014,9 4,2 2,8
17.02.2018 01:00:00 3,1 2,2 - - 37 20 57 31 Z 1014,8 5 0,8
17.02.2018 00:00:00 3,4 2,4 - - 41 22 55 30 ZZW 1014,8 27 0,6
16.02.2018 23:00:00 3,5 2,4 - - 41 22 61 33 Z 1014,9 13 0,8
16.02.2018 22:00:00 3,8 2,4 - - 35 19 61 33 Z 1015,0 22 0,2
16.02.2018 21:00:00 4,1 2,9 - - 35 19 57 31 ZZW 1015,5 8 0,6
16.02.2018 20:00:00 4,6 2,2 - - 42 23 61 33 ZZW 1015,4 30 0,0
16.02.2018 19:00:00 4,7 1,5 - - 42 23 61 33 ZZW 1015,7 40 0,0
16.02.2018 18:00:00 4,4 1,8 - - 37 20 50 27 ZZW 1016,0 40 0,0
16.02.2018 17:00:00 4,1 1,8 - - 22 12 - - ZZW 1016,6 40 0,0
16.02.2018 16:00:00 5,1 1,9 - - 26 14 - - ZZW 1016,6 45 0,0
16.02.2018 15:00:00 5,4 2,3 - - 28 15 52 28 ZZW 1017,0 45 0,0
16.02.2018 14:00:00 5,1 2,0 - - 39 21 52 28 ZZW 1017,1 50 0,0
16.02.2018 13:00:00 4,6 1,5 - - 42 23 57 31 ZZW 1017,5 50 0,0
16.02.2018 12:00:00 4,8 1,8 - - 22 12 - - ZW 1017,6 45 0,0
16.02.2018 11:00:00 3,5 0,8 - - 24 13 - - ZZW 1017,9 35 0,0
16.02.2018 10:00:00 2,8 0,1 - - 26 14 - - ZW 1017,6 40 0,0
16.02.2018 09:00:00 2,2 -0,1 2,7 4,0 24 13 46 25 WZW 1017,4 40 0,0
16.02.2018 08:00:00 1,8 -0,1 - - 28 15 - - ZW 1016,6 35 0,0
16.02.2018 07:00:00 1,6 0,0 - - 26 14 - - ZW 1015,8 45 0,0
16.02.2018 06:00:00 1,6 0,0 - - 22 12 - - WZW 1015,2 35 0,0
16.02.2018 05:00:00 1,4 -0,3 - - 22 12 - - WZW 1014,6 30 0,0
16.02.2018 04:00:00 1,2 -0,4 - - 22 12 46 25 ZW 1013,9 30 0,0
16.02.2018 03:00:00 1,2 -0,5 - - 35 19 50 27 WZW 1013,7 30 0,0
16.02.2018 02:00:00 1,0 -0,2 - - 28 15 46 25 WZW 1012,9 6 0,0
16.02.2018 01:00:00 1,3 -0,7 - - 31 17 48 26 WZW 1011,8 35 0,0
16.02.2018 00:00:00 1,4 -0,3 - - 31 17 50 27 WZW 1010,6 35 0,0
15.02.2018 23:00:00 1,3 -0,4 - - 31 17 52 28 WZW 1009,9 35 0,0
15.02.2018 22:00:00 1,6 -0,9 - - 34 18 48 26 WZW 1008,7 35 0,0
15.02.2018 21:00:00 1,7 -0,5 - - 29 16 50 27 WZW 1007,7 35 0,0
15.02.2018 20:00:00 1,7 -0,5 - - 29 16 46 25 ZW 1006,5 35 0,0
15.02.2018 19:00:00 1,7 0,2 - - 28 15 57 31 WZW 1005,4 28 0,4
15.02.2018 18:00:00 1,4 0,3 - - 37 20 54 29 ZW 1004,1 10 0,2
15.02.2018 17:00:00 1,6 0,1 - - 37 20 55 30 ZW 1002,8 28 0,0
15.02.2018 16:00:00 1,6 0,4 - - 39 21 65 35 WZW 1001,9 15 0,0
15.02.2018 15:00:00 3,0 -1,2 - - 41 22 67 36 WZW 1000,7 35 0,0
15.02.2018 14:00:00 2,8 -1,4 - - 44 24 68 37 WZW 1000,1 40 0,0
15.02.2018 13:00:00 2,8 -0,9 - - 42 23 65 35 WZW 999,1 35 0,0

tt = temperatuur
td = dauwpunt
tt -20cm = temperatuur -20cm
tt -100cm = temperatuur -100cm
ff = windsnelheid
fx = windstoten
dd = windrichting
ppp = luchtdruk
vv = zicht
rr = neerslag

Weerstations in de omgeving